Weather History for Kansas City, MO

Change the Weather History Date:

Tuesday, December 11, 2012

  Actual Average Record
Temperature  
Mean Temperature 34 °F -  
Max Temperature 46 °F 42 °F 60 °F (2006)
Min Temperature 23 °F 27 °F 1 °F (2000)
Degree Days  
Heating Degree Days 30    
Moisture  
Dew Point 14 °F    
Average Humidity 45    
Maximum Humidity 55    
Minimum Humidity 33    
Precipitation  
Precipitation 0.00 in - - ()
Sea Level Pressure  
Sea Level Pressure 30.09 in    
Wind  
Wind Speed 5 mph (SW)    
Max Wind Speed 9 mph    
Max Gust Speed -    
Visibility 10 miles    
Events      
Averages and records for this station are not official NWS values.
T = Trace of Precipitation, MM = Missing Value Source: NWS Daily Summary

Daily Weather History Graph

Daily Weather History Graph

Search for Another Location

Airport:

Trip Planner

Search our weather history database for the weather conditions in past years. The results will help you decide how hot, cold, wet, or windy it might be!

Date:

Astronomy

Dec. 11, 2012 Rise Set
Actual Time 7:27 AM CST 4:55 PM CST
Civil Twilight 6:57 AM CST 5:25 PM CST
Nautical Twilight 6:24 AM CST 5:59 PM CST
Astronomical Twilight 5:51 AM CST 6:31 PM CST
Moon 5:24 AM CST (12/11) 3:35 PM CST (12/11)
Length of Visible Light 10h 27m
Length of Day
9h 27m
Waning Crescent, 4% of the Moon is Illuminated
Dec 11
Waning Crescent
Dec 13
New
Dec 19
First Quarter
Dec 28
Full
Jan 4
Last Quarter

Hourly Weather History & Observations

Time (CST) Temp. Windchill Dew Point Humidity Pressure Visibility Wind Dir Wind Speed Gust Speed Precip Events Conditions
12:54 AM 23.0 °F 15.8 °F 9.0 °F 55% 30.04 in 10.0 mi SSW 5.8 mph - N/A   Clear
1:54 AM 25.0 °F 19.3 °F 8.1 °F 49% 30.04 in 10.0 mi SW 4.6 mph - N/A   Clear
2:54 AM 26.1 °F 16.8 °F 8.1 °F 47% 30.05 in 10.0 mi SW 9.2 mph - N/A   Clear
3:54 AM 24.1 °F 17.0 °F 8.1 °F 51% 30.05 in 10.0 mi SSW 5.8 mph - N/A   Clear
4:54 AM 24.1 °F 17.0 °F 8.1 °F 51% 30.06 in 10.0 mi SW 5.8 mph - N/A   Clear
5:54 AM 24.1 °F 16.0 °F 8.1 °F 51% 30.06 in 10.0 mi SW 6.9 mph - N/A   Clear
6:54 AM 24.1 °F 18.2 °F 7.0 °F 48% 30.08 in 10.0 mi WSW 4.6 mph - N/A   Partly Cloudy
7:54 AM 24.1 °F 17.0 °F 8.1 °F 51% 30.10 in 10.0 mi WSW 5.8 mph - N/A   Clear
8:54 AM 27.0 °F 21.6 °F 9.0 °F 47% 30.12 in 10.0 mi SW 4.6 mph - N/A   Clear
9:54 AM 30.9 °F 27.5 °F 10.9 °F 43% 30.13 in 10.0 mi WSW 3.5 mph - N/A   Clear
10:54 AM 35.1 °F - 15.1 °F 44% 30.13 in 10.0 mi Calm Calm - N/A   Clear
11:54 AM 39.9 °F 36.7 °F 18.0 °F 41% 30.11 in 10.0 mi SW 4.6 mph - N/A   Clear
12:54 PM 43.0 °F 40.3 °F 18.0 °F 37% 30.10 in 10.0 mi South 4.6 mph - N/A   Clear
1:54 PM 45.0 °F 43.5 °F 17.1 °F 33% 30.07 in 10.0 mi Variable 3.5 mph - N/A   Clear
2:54 PM 46.0 °F 42.5 °F 18.0 °F 33% 30.06 in 10.0 mi SSW 6.9 mph - N/A   Clear
3:54 PM 45.0 °F 40.1 °F 18.0 °F 34% 30.07 in 10.0 mi SW 9.2 mph - N/A   Clear
4:54 PM 43.0 °F 38.8 °F 17.1 °F 35% 30.08 in 10.0 mi WSW 6.9 mph - N/A   Clear
5:54 PM 37.9 °F 35.5 °F 18.0 °F 45% 30.10 in 10.0 mi SSW 3.5 mph - N/A   Clear
6:54 PM 37.9 °F 34.4 °F 18.0 °F 45% 30.11 in 10.0 mi SSW 4.6 mph - N/A   Clear
7:54 PM 36.0 °F 29.6 °F 19.0 °F 50% 30.12 in 10.0 mi SSW 8.1 mph - N/A   Clear
8:54 PM 37.0 °F 31.6 °F 18.0 °F 46% 30.14 in 10.0 mi SW 6.9 mph - N/A   Clear
9:54 PM 36.0 °F 31.1 °F 18.0 °F 48% 30.14 in 10.0 mi SW 5.8 mph - N/A   Clear
10:54 PM 35.1 °F 32.2 °F 17.1 °F 48% 30.15 in 10.0 mi SSW 3.5 mph - N/A   Clear
11:54 PM 34.0 °F - 16.0 °F 48% 30.16 in 10.0 mi Calm Calm - N/A   Clear